Location: Ahausen
(50.4985°N, 8.2722°E)
Time: 11:46:47
(UTC+00:00)

Cosmos 2227 - Pass Details

Date: 18 September 2020
Orbit: 836 x 859 km, 71.0° (Epoch: 30 October)

Event Time Altitude Azimuth Distance (km) Brightness Sun altitude
Rises 17:57:59 0° 192° (SSW) 3,419 7.4 -4.7°
Reaches altitude 10° 18:00:28 10° 188° (S) 2,485 6.7 -5.1°
Maximum altitude 18:06:01 55° 112° (ESE) 1,027 4.4 -6.0°
Drops below altitude 10° 18:11:35 10° 36° (NE) 2,489 6.4 -6.9°
Sets 18:14:04 0° 33° (NNE) 3,426 7.1 -7.3°
